Tracking 29528 objects as of 13-Sep-2024
HD Live streaming from Space Station
objects crossing your sky now

CSTP-1.1

Track CSTP-1.1 now!
10-day predictions
CSTP-1.1 is classified as:


NORAD ID: 57202
Int'l Code: 2023-091AN
Perigee: 537.5 km
Apogee: 554.5 km
Inclination: 97.6 °
Period: 95.4 minutes
Semi major axis: 6917 km
RCS: Unknown
Launch date: June 27, 2023
Source: (TBD)
Launch site: VOSTOCHNY COSMODROME (VOSTO)

Uplink (MHz):
Downlink (MHz): 436.075
Beacon (MHz):
Mode: LoRa
Call sign:
Status: Active

Your satellite tracking list
Your tracking list is empty




NASA's NSSDC Master Catalog

Two Line Element Set (TLE):
1 57202U 23091AN  24256.80730696  .00025985  00000-0  16346-2 0  9990
2 57202  97.6098 308.5477 0012229 162.0984 198.0678 15.09126739 66719
Source of the keplerian elements: AFSPC